Weather in Taza

Morocco     34°13′40″N   4°00′36″W
temp.,
°C
wind,
m/s
gust,
m/s
humid.,
%
clouds,
%
prec.,
mm/h
press.,
hPa
HPBL,
m
15 april, thu
thu1500:00+13ese3390100 7.6 1012367
03:00+12ssw1192100 8.8 1011165
06:00+12n1191100 10.2 101139
09:00+14wnw1276100 0.0 1012480
12:00+17nw446480 0.6 1011971
15:00+16ene2266100 4.1 1010397
18:00+13se3483100 6.4 1012343
21:00+12ese458699 0.7 1014500
16 april, fri
fri1600:00+11ese458598 0.9 1014442
03:00+11ese3487100 0.0 1014406
06:00+11ese248799 0.1 1014387
09:00+11ese338297 0.1 1016514
12:00+14e447188 0.1 1015787
15:00+15e436596 0.2 10141060
18:00+14e336696 0.3 1015788
21:00+12e22760 0.0 101711
17 april, sat
sat1700:00+10ese118621 0.2 101711
03:00+9e11884 0.1 101610
06:00+9se01905 0.1 101710
09:00+14wnw23725 0.0 1017585
12:00+18w67510 0.0 10161670
15:00+20w77416 0.0 10152054
18:00+18w68523 0.0 1016544
21:00+14wsw22640 0.0 101918
18 april, sun
sun1800:00+12s017147 0.0 101911
03:00+11e227471 0.0 101910
06:00+11ese2278100 0.0 101911
09:00+15e2358100 0.0 1020555
12:00+18e4343100 0.0 10191087
15:00+20e4336100 0.0 10181009
18:00+18e4642100 0.0 1018219
21:00+15ese4651100 0.0 1021121
19 april, mon
mon1900:00+14ese335971 0.0 102034
03:00+12e33643 0.0 101917
06:00+11ese22650 0.0 101914
09:00+16e234314 0.0 1018481
12:00+20nw13350 0.0 10171047
15:00+22w77325 0.0 10141429
18:00+19w694968 0.0 1015528
21:00+16wsw33620 0.0 101730